STARLINK-34489, 64679

Orbit data source: Space-Track

STARLINK-34489, 64679 is a payload satellite owned by SpaceX/Seattle (US) in LEO that was launched on Sat, 28 Jun 2025 UTC via an FALCON 9 launch vehicle from the Air Force Eastern Test Range (AFETR). Payload-class satellites include a variety of spacecraft equipped with specific instruments for various scientific and technological missions. These include communications satellites like Starlink; space stations such as the ISS; scientific satellites like the Hubble; Earth observation satellites from companies like Planet Labs, Umbra, and HawkEye 360; GPS; miniature CubeSats for education and research; and military/defense satellites.

Loading next visibility...
Identifier
64679, 2025-139R
Orbit
LEO
Country
Flag of USUS
Related business
Manufacturer
SpaceX/Seattle
Mission
Operational Commercial Communications
Bus & Motor
STARLINK V2MO, Unknown motor
Mass
575 kg wet, ~530 kg dry
Launch date (UTC)
2025-06-28 (1 year ago)
Launch vehicle
FALCON 9
Launch site
Air Force Eastern Test Range (AFETR)
Object type
Payload
Rocket body
Debris
Shape & HBR
Box + 2 Pan, 17.7 m
Radar Cross Section
36.964 m², Large (>1 m²)

Expand to show TLE details & history
Last TLE update: 21 hours ago

TLE from 21 hours ago
0 STARLINK-34489
1 64679U 25139R   26170.97053786  .00021397  00000-0  64235-3 0  9998
2 64679  53.1590  10.5474 0000776  90.6714 269.4378 15.34411840 55960
Epoch: 2026-06-19T23:17Z
TLE epoch observation values (Epoch: 2026-06-19T23:17:34.471Z)
Latitude
0.00004°
Longitude
112.96193°
Altitude
463.575 km
Speed
7.636 km/s
True Right ascension
00h 42m 11s
True Declination
0° 00' 00"
Sunlit
Object was in daylight at epoch
Visualization orbit readout
Latitude
Unknown
Longitude
Unknown
Altitude
Unknown
Speed
Unknown
Apparent Right ascension
Unknown
Apparent Declination
Unknown
Sunlit
N/A
Visualization observer readout
Local Sidereal Time
07:19:16
Azimuth
Unknown
Elevation
Unknown
Doppler factor
Unknown
Orbital elements
Apogee altitude
463.456 km
Perigee altitude
462.394 km
Semi-major axis
6,841.062 km
Eccentricity
0.00008
Inclination
53.159°
RAAN
10.5474°
Arg. of periapsis
90.6714°
True anomaly
269.42891°
Mean anomaly
269.4378°
Eccentric anomaly
269.43335°
Mean motion
3.83582 °/min
Orbital period
93.85 mins
BSTAR
0.00064235
Loading maneuver chart data...
Computing Atmospheric mass density...
Loading historical data...
Loading historical data...
Loading historical data...
Loading historical data...
Loading historical data...
Loading historical data...
Loading historical data...

Documentation

Showing up to 5 results
|